Wetbulb
48.70 45.20 43.31 46.10 47.56 46.92 45.57 43.80 42.76 45.19 47.57 44.53 44.11 44.36 46.29 48.53 48.59 48.41 48.70 49.21 49.39 50.09 51.83 49.40 49.03 48.49 46.43 44.96 43.34 42.82 41.85 42.10 42.29 41.49 40.43 40.23 39.45 40.74 40.39 40.59 39.71 39.08 38.40 37.69
44.95 41.76 46.60 47.65 46.16 45.43 45.00 42.60 42.41 45.76 47.28 42.30 43.11 42.59 45.82 47.35 47.69 48.23 48.00 48.34 49.03 50.22 49.80 47.80 47.49 46.26 44.87 43.10 43.02 42.64 41.82 41.60 41.68 41.84 41.79 41.26 40.74 40.45 40.12 40.08 39.14 38.75 37.64 37.16
43.03 45.29 45.98 44.95 44.90 42.76 43.02 41.73 42.70 42.93 45.99 43.26 40.86 40.17 43.23 46.25 46.62 47.14 47.20 47.93 48.66 49.19 49.13 46.75 45.45 44.04 43.94 42.40 42.55 41.88 41.92 41.63 41.31 41.23 40.34 38.42 37.90 37.30 36.89 37.48 37.99 38.05 37.44 36.50
44.57 47.09 45.07 43.59 42.05 43.79 39.92 45.42 44.54 42.66 40.96 37.63 41.62 34.43 42.19 44.33 45.05 45.54 45.48 46.94 48.61 47.94 48.37 46.84 44.78 43.07 42.64 42.54 43.34 42.36 41.77 41.33 41.08 40.49 38.38 37.07 36.16 35.76 37.65 38.49 38.44 37.18 36.85 35.73
42.68 43.97 41.31 41.15 42.60 45.12 42.19 41.83 41.84 41.87 39.75 39.69 39.35 36.54 40.04 39.84 40.50 42.44 45.39 47.54 49.75 49.07 47.30 45.90 44.12 42.77 42.84 42.65 42.31 42.05 41.37 40.68 40.33 39.49 38.12 37.32 36.98 37.98 38.07 36.59 35.53 35.63 35.99 35.57
42.68 43.37 43.51 44.14 40.57 42.17 41.57 40.16 39.22 38.74 38.30 32.75 38.97 38.44 38.51 41.39 41.65 43.66 45.99 47.37 49.16 47.88 46.74 45.91 44.82 43.74 42.74 42.69 41.50 41.12 40.00 39.27 39.38 38.41 37.69 37.15 36.66 36.38 35.20 34.59 33.88 34.43 34.71 34.41
42.57 41.86 43.34 42.30 40.27 40.19 40.15 39.56 35.24 34.62 33.00 31.87 41.43 37.16 40.20 44.37 44.20 44.79 44.96 46.64 48.22 46.99 46.44 45.33 43.17 41.69 41.59 40.83 40.30 40.17 39.58 38.18 38.29 37.24 36.77 36.56 36.37 36.22 34.76 34.58 34.03 33.08 32.65 32.46
38.60 37.04 41.04 41.61 42.16 43.00 38.17 40.57 36.14 30.27 30.97 34.46 34.89 33.42 39.41 45.43 46.05 45.73 45.90 46.32 46.46 46.01 46.31 45.23 43.86 42.05 41.03 40.21 39.52 39.32 38.43 37.94 37.36 36.66 36.19 36.05 35.68 35.10 34.34 33.79 32.76 31.76 31.19 31.27
37.77 37.80 39.07 41.17 41.26 43.58 38.98 34.45 41.67 36.55 34.32 31.51 36.33 40.59 44.97 44.54 43.70 43.93 43.47 44.33 44.79 44.46 44.82 44.54 43.80 42.18 41.35 39.70 38.81 38.65 38.40 37.98 36.86 35.90 35.48 34.77 34.14 33.25 32.22 31.93 31.38 30.52 30.33 29.63
42.03 36.16 41.93 35.41 38.09 38.77 38.34 40.71 34.65 35.71 29.30 28.01 34.16 36.79 37.88 40.48 41.31 42.66 42.44 43.49 45.65 45.70 45.25 44.69 43.83 41.98 41.53 40.69 39.08 38.88 38.66 37.10 36.79 35.32 34.53 33.14 32.31 31.99 31.50 30.74 29.09 28.70 28.84 28.35
42.40 39.60 37.84 35.94 34.80 37.80 34.36 34.76 35.08 35.37 36.53 30.72 29.32 34.71 41.61 42.46 43.08 43.71 44.48 45.16 46.58 46.93 45.92 44.85 43.53 42.32 41.36 40.31 39.27 38.40 37.96 36.81 36.10 34.29 33.53 32.08 30.84 30.32 29.70 28.32 27.98 27.64 27.49 26.50
41.80 38.06 34.07 37.53 42.30 40.28 40.12 38.78 38.41 32.67 31.40 34.25 33.64 33.67 43.58 43.55 43.85 43.74 44.08 45.33 46.81 47.95 47.58 46.68 44.82 42.47 40.61 39.61 39.26 38.39 37.39 36.52 35.68 33.99 32.17 30.44 29.72 28.40 27.26 26.64 26.66 26.53 25.19 24.99
40.00 34.39 30.67 33.27 36.40 34.67 34.92 38.05 38.55 39.16 36.68 32.10 30.12 33.19 43.65 44.32 44.62 44.99 43.56 45.11 45.44 44.67 45.84 46.67 45.46 42.67 41.12 39.77 38.87 38.02 37.02 36.09 34.94 32.42 30.27 28.58 27.75 26.27 25.95 25.92 25.67 24.75 23.54 22.93
41.26 36.68 33.53 30.52 35.07 38.63 35.04 35.72 36.77 36.10 31.78 32.03 32.81 35.54 40.23 42.17 42.84 44.25 45.04 46.02 46.05 45.49 45.47 46.21 44.96 43.59 42.02 39.87 38.62 37.59 36.16 35.57 33.12 30.53 28.27 26.59 25.78 25.19 25.32 24.93 23.84 22.82 22.25 21.14
37.65 31.15 34.14 36.20 37.92 38.71 36.72 36.70 36.58 34.05 34.64 31.28 34.46 35.69 39.61 41.94 42.80 44.25 45.62 45.36 44.64 44.90 45.04 44.71 43.94 44.52 41.85 38.95 37.53 36.07 34.84 33.52 30.79 27.92 26.38 25.27 25.47 25.09 23.97 22.16 21.22 20.64 19.73 19.07
38.07 31.63 33.37 31.18 34.36 34.30 32.30 35.20 36.35 36.18 36.66 36.76 36.99 35.82 42.48 43.49 44.26 43.59 43.96 44.22 43.43 43.70 43.83 43.70 43.44 41.85 39.07 36.63 36.06 33.49 33.60 31.20 28.51 25.84 24.66 24.72 23.38 21.54 20.73 20.31 19.32 18.05 17.31 17.17
33.51 32.70 31.32 27.92 33.65 32.42 28.38 32.81 34.67 35.97 38.63 38.30 33.78 38.83 43.24 42.88 43.22 43.59 44.31 44.83 43.65 43.97 43.37 41.18 42.01 41.29 38.05 36.67 33.83 32.52 31.30 28.78 25.47 24.20 23.57 21.84 20.37 18.60 18.79 17.70 16.20 15.07 15.12 15.82
34.83 32.44 32.49 29.61 31.98 22.24 33.59 39.82 38.65 36.35 38.19 40.12 39.89 41.08 42.72 43.28 44.74 44.28 45.46 44.61 43.65 43.72 42.42 42.07 42.05 41.58 37.41 36.23 33.13 31.36 28.53 24.89 23.25 22.62 20.54 18.97 18.24 16.73 16.31 14.57 13.98 14.17 14.40 14.16
38.96 35.32 31.01 27.57 27.61 31.63 34.41 38.34 36.95 35.37 35.34 40.51 39.56 40.97 42.37 43.29 42.25 41.69 45.07 45.47 44.00 44.40 44.23 44.25 44.44 42.80 36.96 33.38 31.27 27.44 24.59 22.02 21.43 20.44 18.58 17.60 16.75 15.38 13.77 12.66 12.78 13.75 14.00 13.90
37.12 36.89 32.08 30.27 25.76 23.80 34.12 39.61 42.96 41.44 30.52 41.90 41.66 40.87 40.99 41.23 34.62 39.06 44.66 41.98 40.99 41.17 41.67 40.95 37.54 34.34 32.40 30.08 27.75 23.54 20.44 20.15 19.63 19.07 16.92 16.45 15.67 13.53 12.30 12.03 12.43 13.29 12.80 12.17
31.38 31.08 28.44 28.88 27.23 30.56 38.84 40.68 40.30 29.37 33.73 42.64 41.94 41.14 40.79 38.58 40.31 43.35 42.97 40.51 40.57 39.07 35.63 33.46 32.17 29.74 29.30 26.49 23.10 20.53 19.75 18.85 19.67 18.32 15.74 14.14 13.14 12.07 11.90 11.67 11.78 10.73 10.48 11.38
32.67 30.52 28.83 29.33 26.68 24.68 41.52 40.00 34.31 39.93 43.38 43.74 43.86 42.88 41.26 41.84 42.24 41.85 42.62 42.15 37.69 35.43 29.40 29.51 26.56 25.22 24.18 22.90 21.70 20.22 18.66 19.90 17.58 14.75 12.80 11.56 10.63 10.78 9.68 8.37 8.31 8.53 8.80 8.69
30.31 31.65 27.82 31.04 32.02 40.41 40.45 38.70 39.04 41.16 40.99 41.02 39.97 39.48 40.47 40.25 41.04 40.79 39.93 39.39 34.37 33.67 28.37 26.46 24.74 21.90 20.29 21.20 21.94 19.46 19.18 15.44 13.43 11.99 10.34 8.96 8.59 10.42 8.54 5.99 7.66 8.15 9.11 10.58
30.34 33.76 29.38 28.75 32.71 33.19 35.44 37.91 39.41 40.29 36.97 36.90 37.60 38.03 39.39 39.37 39.91 38.31 37.99 37.18 32.61 28.73 26.23 24.08 21.34 18.82 17.80 19.66 21.10 20.19 14.44 13.88 11.53 9.23 8.41 7.62 7.06 7.39 7.05 8.69 8.85 10.14 10.47 10.78
25.96 27.42 25.72 24.82 27.82 31.73 33.15 34.47 35.53 35.73 36.22 35.11 36.20 36.39 36.62 36.67 36.72 38.44 38.74 38.76 37.65 31.32 25.27 22.69 20.26 19.14 17.84 18.85 19.30 13.61 12.92 11.75 10.24 8.84 8.02 7.25 7.80 7.12 7.37 9.52 9.28 10.50 11.46 12.32
26.78 24.26 21.67 20.52 29.32 29.25 30.16 32.49 31.50 30.32 30.91 32.04 31.60 31.60 33.18 34.64 35.46 37.34 38.36 39.87 39.70 32.76 25.02 21.56 20.34 18.72 17.41 17.50 13.42 12.13 10.89 11.64 9.93 8.55 8.36 8.00 7.01 8.16 7.96 7.16 5.70 10.08 11.71 11.74
MSLP
1012.01 1011.36 1009.42 1008.66 1008.26 1007.95 1007.66 1007.20 1006.50 1005.91 1006.70 1007.74 1007.23 1006.57 1005.83 1005.22 1004.73 1004.24 1003.69 1003.29 1003.38 1003.76 1004.76 1006.96 1008.39 1009.76 1011.21 1012.48 1013.62 1014.59 1015.58 1016.26 1017.00 1017.65 1018.19 1018.65 1018.93 1019.32 1019.65 1020.00 1020.51 1020.72 1021.02 1021.34
1011.59 1009.95 1008.34 1008.51 1008.56 1008.23 1007.63 1007.54 1006.30 1006.14 1006.40 1008.14 1007.18 1006.01 1005.55 1004.96 1004.00 1003.55 1003.08 1002.33 1002.62 1002.96 1004.36 1006.38 1007.86 1009.44 1010.86 1012.16 1013.23 1014.07 1015.00 1015.76 1016.48 1017.02 1017.56 1017.85 1018.31 1018.87 1019.16 1019.55 1019.86 1020.24 1020.64 1020.82
1009.43 1007.96 1008.74 1008.82 1008.60 1008.56 1008.01 1007.71 1006.81 1006.74 1006.89 1007.75 1007.40 1005.08 1004.49 1003.57 1003.57 1003.10 1002.12 1001.77 1002.25 1002.79 1003.79 1005.58 1007.36 1009.02 1010.51 1011.56 1012.47 1013.40 1014.21 1014.95 1015.78 1016.50 1017.32 1018.16 1018.71 1019.06 1019.18 1019.27 1019.45 1019.86 1020.30 1020.79
1008.68 1008.36 1008.48 1008.81 1008.63 1008.70 1008.24 1007.61 1007.58 1007.71 1008.13 1006.73 1007.19 1002.82 1002.93 1002.70 1002.29 1002.39 1001.41 1000.72 1001.26 1002.24 1003.46 1005.07 1006.73 1008.34 1009.60 1010.87 1012.01 1012.83 1013.57 1014.25 1015.11 1016.03 1016.91 1017.44 1017.74 1017.82 1017.84 1018.08 1018.83 1019.43 1020.10 1020.60
1007.41 1008.39 1008.99 1008.89 1008.44 1008.70 1008.69 1008.80 1008.56 1008.41 1008.04 1007.03 1006.44 1004.45 1001.40 1001.87 1001.46 1001.26 1000.61 1000.00 1000.41 1001.58 1003.10 1004.28 1005.92 1007.51 1008.92 1010.21 1011.05 1012.08 1012.96 1013.78 1014.60 1015.34 1015.95 1016.42 1016.75 1017.04 1017.42 1018.24 1018.85 1019.37 1019.87 1020.31
1008.44 1009.32 1009.35 1008.85 1009.52 1009.60 1009.64 1009.57 1009.36 1009.12 1008.43 1005.44 1004.55 1003.76 1000.22 1000.02 1000.23 1000.13 999.92 999.84 1000.19 1001.37 1003.01 1004.50 1005.80 1007.19 1008.33 1009.59 1010.63 1011.37 1012.16 1013.01 1013.94 1014.80 1015.49 1015.83 1016.23 1016.64 1017.20 1017.77 1018.27 1018.86 1019.29 1019.68
1007.26 1007.82 1008.59 1009.40 1009.85 1010.31 1010.03 1009.54 1008.32 1007.67 1007.39 1003.24 1002.86 1001.46 999.24 999.33 999.56 999.56 999.30 999.23 1000.17 1001.60 1002.68 1003.95 1005.40 1006.48 1007.54 1008.51 1009.58 1010.75 1011.19 1011.84 1012.87 1013.84 1014.46 1014.98 1015.50 1016.09 1016.74 1017.36 1017.88 1018.32 1018.69 1019.13
1006.28 1006.29 1007.47 1008.11 1008.08 1007.70 1009.00 1008.55 1007.67 1006.39 1005.57 1002.26 1002.65 999.35 997.88 998.00 998.32 998.72 998.85 999.49 1000.44 1001.57 1002.46 1003.38 1004.30 1005.64 1006.67 1007.88 1009.10 1010.16 1010.50 1010.93 1012.00 1013.11 1013.89 1014.54 1015.02 1015.55 1016.18 1016.96 1017.66 1018.15 1018.54 1018.90
1005.28 1005.18 1006.64 1007.26 1007.75 1007.78 1008.29 1008.44 1007.41 1006.95 1005.46 1004.48 999.66 997.70 996.80 997.65 997.96 998.15 999.15 999.92 1000.23 1001.26 1002.03 1002.73 1003.70 1004.65 1005.68 1006.82 1007.83 1008.79 1009.84 1010.45 1011.01 1011.89 1012.88 1013.61 1014.45 1015.13 1015.80 1016.58 1017.36 1017.97 1018.42 1018.76
1003.92 1004.89 1005.35 1007.73 1008.33 1008.10 1007.95 1007.38 1007.43 1007.27 1005.84 1003.37 997.83 997.53 996.37 997.35 997.24 998.03 998.86 999.31 999.56 1000.64 1001.46 1002.27 1003.12 1003.93 1004.80 1005.71 1006.98 1007.95 1008.68 1009.44 1010.23 1011.19 1011.95 1012.78 1013.61 1014.67 1015.51 1016.11 1016.95 1017.57 1018.16 1018.62
1005.04 1005.64 1005.29 1007.35 1006.58 1005.92 1007.61 1006.81 1006.57 1006.20 1004.51 1002.70 1000.50 995.43 995.65 996.09 996.93 997.55 998.30 998.71 998.97 999.46 1000.36 1001.32 1002.36 1003.30 1004.15 1004.92 1005.75 1006.52 1007.52 1008.48 1009.16 1010.36 1011.22 1012.27 1013.22 1014.11 1015.15 1015.79 1016.44 1017.09 1017.69 1018.26
1005.36 1005.53 1005.62 1004.52 1003.86 1004.35 1004.60 1004.47 1004.82 1004.01 1002.78 1002.59 1000.95 994.49 994.72 995.80 996.85 997.02 997.56 998.12 998.38 998.76 999.28 999.97 1000.95 1002.01 1003.03 1003.78 1004.77 1005.59 1006.53 1007.45 1008.18 1009.38 1010.65 1011.60 1012.77 1013.81 1014.82 1015.51 1015.99 1016.60 1017.15 1017.64
1005.94 1006.19 1006.25 1005.48 1005.09 1004.49 1004.06 1003.53 1003.53 1003.03 1002.53 1001.04 1000.67 995.80 996.73 995.24 996.19 996.18 996.67 997.25 997.95 998.34 998.66 999.04 999.78 1000.78 1001.49 1002.53 1003.62 1004.49 1005.45 1006.27 1007.61 1009.05 1010.32 1011.35 1012.32 1013.09 1013.91 1014.67 1015.46 1016.15 1016.85 1017.34
1007.07 1006.41 1006.03 1004.78 1003.32 1002.83 1002.71 1002.51 1003.11 1003.50 1001.97 999.79 999.02 997.50 995.94 995.93 996.47 994.96 995.12 995.75 996.35 996.93 997.43 997.75 998.81 999.62 1000.33 1001.40 1002.51 1003.40 1004.47 1005.82 1007.09 1008.45 1009.76 1010.85 1011.67 1012.40 1013.33 1014.28 1015.29 1016.07 1016.73 1017.25
1009.33 1007.99 1007.42 1005.79 1004.90 1003.70 1003.09 1002.19 1002.65 1002.38 1001.51 1000.78 998.34 998.32 997.22 995.68 994.38 994.11 993.93 994.47 995.46 995.52 996.10 996.86 997.56 998.43 999.35 1000.46 1001.35 1002.51 1003.85 1005.16 1006.54 1007.95 1009.07 1010.09 1011.21 1011.85 1012.76 1013.63 1014.74 1015.64 1016.49 1017.20
1008.51 1007.61 1007.51 1005.96 1005.26 1004.55 1003.55 1002.85 1002.17 1000.72 1000.56 999.66 998.74 997.63 996.17 994.88 993.87 993.59 993.21 992.93 994.76 994.15 995.09 995.83 996.34 997.16 998.10 999.25 1000.09 1001.34 1002.80 1004.28 1005.80 1007.34 1008.51 1009.66 1010.50 1011.42 1012.32 1013.22 1014.23 1015.15 1016.15 1016.59
1007.67 1007.33 1006.62 1004.65 1003.84 1003.41 1002.84 1001.36 1000.14 999.60 998.19 997.44 997.05 995.15 994.80 993.55 992.85 991.96 993.13 993.05 993.89 993.37 993.79 994.47 995.13 996.02 997.09 998.12 999.13 1000.35 1001.83 1003.85 1005.46 1006.94 1008.19 1009.45 1010.65 1011.78 1012.79 1013.45 1014.14 1014.83 1015.45 1015.82
1004.80 1005.37 1005.22 1003.19 1003.18 1000.38 997.80 997.75 997.77 997.16 996.33 995.17 995.38 995.03 993.25 992.31 991.88 993.09 992.48 992.53 992.51 992.67 992.97 993.77 994.54 995.11 996.03 997.63 999.00 1000.31 1001.99 1003.67 1005.29 1006.68 1008.05 1009.35 1010.41 1011.33 1012.28 1013.43 1013.94 1014.43 1014.92 1015.18
1002.93 1002.95 1002.80 1001.93 1000.08 997.70 997.01 996.12 995.78 995.09 992.91 993.60 994.24 992.73 991.95 991.98 992.89 992.41 990.75 991.22 992.32 991.87 992.37 992.81 993.36 994.34 995.78 997.21 998.66 1000.63 1002.58 1004.11 1005.39 1006.56 1007.88 1009.54 1010.68 1011.42 1012.20 1013.11 1013.85 1014.35 1014.69 1015.07
1001.02 1001.13 1001.24 1000.36 998.03 995.45 993.93 994.10 993.37 992.55 991.54 992.41 991.38 991.12 990.76 990.99 992.64 990.74 989.59 991.04 991.62 991.69 992.09 992.76 993.52 994.67 996.13 997.66 999.11 1000.16 1001.58 1003.21 1004.94 1006.14 1007.14 1008.57 1009.99 1011.56 1012.67 1013.24 1013.59 1014.07 1014.72 1015.04
999.80 1000.14 998.66 997.81 995.82 993.93 993.43 992.62 992.34 991.89 989.50 989.83 990.54 990.61 990.68 991.21 990.75 990.10 990.29 990.99 991.29 991.90 992.67 993.60 994.32 995.02 996.15 997.57 999.14 1000.40 1001.27 1002.41 1003.73 1005.35 1006.92 1008.31 1009.43 1010.38 1011.58 1012.79 1013.03 1013.76 1014.41 1014.46
996.25 997.08 996.98 996.89 995.09 992.47 992.29 992.23 992.04 989.21 989.46 989.83 990.22 990.45 990.72 990.27 989.79 990.08 989.88 990.48 991.36 992.16 992.95 993.97 994.96 995.72 996.83 997.99 999.02 1000.19 1000.73 1001.73 1004.02 1004.95 1006.49 1008.57 1009.63 1010.43 1011.76 1012.04 1012.92 1013.43 1013.86 1014.13
996.89 997.42 997.31 996.69 993.98 992.74 992.57 992.77 993.01 992.71 992.06 992.14 992.21 992.50 992.35 991.74 991.11 991.01 990.99 990.97 991.39 992.19 993.31 994.47 995.16 996.12 996.97 997.69 998.43 999.57 1000.73 1001.96 1003.79 1005.09 1006.35 1008.17 1009.81 1010.53 1011.45 1012.42 1012.77 1013.27 1013.57 1013.30
998.74 997.84 996.98 997.03 995.40 994.93 994.41 994.18 993.48 993.67 993.95 994.13 993.99 993.73 993.35 992.80 992.16 991.59 991.52 992.03 991.94 992.39 993.40 994.98 995.90 996.17 996.74 997.37 998.19 999.28 1000.92 1001.95 1003.56 1004.89 1006.57 1008.24 1009.15 1010.33 1011.38 1011.83 1012.39 1012.66 1012.95 1012.75
1000.16 998.97 997.77 996.06 995.57 995.30 994.35 994.48 994.42 993.96 993.62 993.94 993.82 993.70 993.10 993.00 992.62 992.48 992.24 992.20 991.92 991.65 992.47 994.03 994.99 995.62 996.29 996.99 997.96 999.42 1000.38 1001.37 1002.91 1004.12 1005.96 1007.50 1008.78 1009.45 1010.22 1010.94 1011.77 1011.94 1012.51 1012.77
1000.78 999.86 998.88 996.95 996.47 996.14 994.90 994.94 995.20 995.06 994.57 994.10 993.89 992.64 992.28 992.47 991.55 991.08 990.96 990.90 990.63 990.87 991.10 992.88 993.96 994.65 995.51 996.47 997.78 999.22 1000.45 1000.58 1002.05 1003.63 1005.13 1006.65 1007.85 1008.55 1009.39 1010.15 1011.20 1011.63 1012.06 1012.52
Wind_Speed
6 9 17 17 18 22 22 21 23 23 7 9 19 23 22 22 21 23 23 22 20 19 12 15 17 17 17 17 18 19 17 16 11 9 8 7 7 6 6 5 5 4 1 1
6 17 21 18 10 15 20 20 25 21 6 5 16 22 21 22 26 25 23 22 17 14 12 15 16 16 17 18 17 17 17 16 12 8 7 5 7 5 5 5 4 4 3 4
23 22 3 5 14 15 18 22 22 21 12 13 14 20 17 14 15 18 21 17 14 14 13 16 19 20 18 19 19 18 17 16 15 12 8 6 4 4 5 6 5 6 5 4
19 20 20 16 21 18 19 11 18 19 11 15 2 19 14 15 18 13 19 17 14 11 10 14 18 19 20 18 17 18 17 16 15 15 11 12 8 8 7 5 4 3 4 6
11 8 9 15 16 11 7 2 5 8 13 17 15 18 13 6 9 13 19 19 11 10 12 17 18 18 19 18 17 17 17 16 15 15 13 10 9 5 4 4 4 5 5 6
20 2 5 6 3 2 7 3 3 4 5 15 20 20 5 7 6 8 13 13 6 8 12 13 15 16 16 16 16 17 18 17 16 16 15 13 11 9 7 7 6 6 5 4
13 23 5 5 6 4 9 7 7 9 7 18 13 13 17 10 13 15 21 15 5 10 13 15 17 16 16 19 19 17 20 20 18 17 16 15 13 11 11 9 7 6 4 5
9 11 18 15 18 10 14 11 7 12 15 24 6 15 11 13 12 12 11 3 6 11 12 15 16 15 17 18 19 20 20 20 19 17 16 13 13 8 8 8 6 5 6 6
11 15 5 12 4 10 10 9 3 9 1 9 15 25 19 7 10 11 6 8 12 11 12 14 15 16 16 17 20 21 19 19 20 19 16 15 13 12 10 10 8 7 7 6
13 16 7 7 3 5 6 2 6 5 7 17 28 24 18 10 15 9 8 11 12 10 13 12 13 15 15 16 17 18 19 20 17 18 16 14 13 12 10 10 10 9 7 6
10 8 7 6 13 16 8 8 7 4 11 11 18 13 6 2 5 2 7 8 9 9 11 12 13 13 14 15 17 18 19 20 19 18 16 15 13 13 11 9 9 8 7 7
10 3 10 23 10 7 12 19 21 11 17 10 14 34 6 4 5 3 7 7 9 5 10 13 13 15 15 16 16 17 18 19 19 17 16 15 13 13 12 11 10 9 9 8
8 5 7 13 11 7 9 15 16 19 13 25 17 31 7 21 17 13 10 10 9 10 12 12 13 15 16 16 16 16 17 18 17 16 16 15 15 14 13 12 11 9 8 7
4 5 13 20 22 6 13 18 18 20 18 21 27 27 33 28 23 29 26 20 15 14 16 15 13 14 13 14 15 16 17 17 16 17 16 16 15 14 11 10 9 8 6 6
5 11 20 23 28 30 25 19 13 22 23 21 26 23 24 31 35 31 27 22 19 21 16 14 16 14 14 14 15 15 15 17 17 17 16 16 14 12 11 10 9 7 6 6
10 7 15 21 25 28 33 29 27 32 27 30 31 30 34 36 38 35 32 33 21 27 18 18 17 16 13 17 17 16 17 18 18 18 16 15 14 13 12 10 9 7 7 6
9 8 8 18 23 26 23 35 36 37 39 31 30 39 36 37 36 36 27 27 20 24 17 12 14 12 14 16 16 18 18 16 17 16 15 14 13 11 9 9 9 8 8 7
15 18 13 15 15 22 26 25 32 39 36 36 29 31 35 34 33 20 22 24 22 21 19 13 9 8 11 11 13 14 16 17 17 16 14 13 12 11 11 10 9 8 7 7
25 22 13 12 17 22 7 21 24 30 37 31 30 37 36 33 20 25 31 26 20 22 18 13 8 6 9 13 15 15 14 15 16 16 15 12 10 11 11 9 8 7 5 5
29 25 20 16 17 22 17 27 25 26 18 20 28 28 30 23 12 20 28 9 12 12 8 7 6 6 11 11 15 18 19 19 17 16 15 14 12 10 9 9 8 5 4 6
10 15 24 22 21 15 15 16 6 24 24 29 27 26 27 21 16 22 14 6 6 4 6 6 8 10 12 15 17 16 18 19 18 16 15 13 13 12 11 9 7 6 5 4
29 14 14 14 21 28 16 18 32 30 25 23 20 18 16 17 17 15 18 17 8 10 6 8 8 9 10 14 15 16 18 17 15 16 16 13 11 9 8 9 7 6 5 5
17 14 9 13 9 11 12 12 16 17 15 15 14 18 20 17 16 13 8 10 8 9 6 7 9 11 12 15 15 17 15 18 16 16 15 13 12 9 9 8 7 6 6 5
10 6 5 13 11 17 21 19 13 14 15 16 16 19 17 20 19 19 12 12 5 7 9 8 10 12 13 14 15 15 18 18 18 17 15 12 11 11 9 6 6 5 5 4
12 16 19 26 29 24 23 26 23 28 20 17 15 16 20 19 22 22 21 20 15 8 9 12 13 13 14 16 16 16 18 19 17 16 14 13 10 10 10 8 6 5 4 3
14 19 16 20 25 21 22 20 26 26 27 23 22 24 24 21 21 22 20 20 18 10 11 13 14 14 16 17 16 17 17 19 19 16 13 11 10 9 8 8 7 6 4 3
Wind_Direction
189 230 239 254 245 249 274 284 276 272 272 220 245 260 269 274 277 272 274 272 263 251 222 211 205 197 194 191 191 192 188 189 181 185 186 190 194 190 190 200 176 192 183 305
213 239 254 278 287 271 264 265 267 273 289 214 271 270 268 267 268 274 274 270 272 262 185 205 193 189 194 190 194 192 193 190 190 188 190 200 191 192 203 184 185 184 202 234
241 254 111 266 260 252 246 250 260 272 297 228 273 272 257 246 257 261 268 263 264 251 209 196 191 192 191 197 193 194 193 191 190 192 176 174 165 204 198 201 197 191 207 226
253 264 260 254 255 252 261 262 252 268 279 273 83 287 279 285 263 245 268 270 260 213 197 192 189 191 195 197 192 195 195 194 191 184 185 193 201 202 199 181 169 199 228 243
235 225 220 233 243 237 240 347 250 257 257 279 259 269 276 170 262 232 248 266 268 178 194 189 185 190 195 193 192 193 193 196 189 188 192 191 204 201 185 186 213 235 240 241
258 91 243 235 107 246 122 217 217 227 267 255 258 244 280 214 212 235 251 242 267 184 182 191 184 186 192 187 191 192 192 194 192 194 198 198 197 191 189 199 212 221 229 245
224 227 189 188 206 166 206 213 270 251 221 263 280 259 255 272 245 253 263 268 182 172 179 180 183 186 187 189 189 194 193 195 193 195 193 196 197 196 201 205 213 224 243 252
249 241 191 195 221 251 198 215 220 266 265 282 111 260 262 233 231 246 252 222 196 189 186 187 187 189 191 188 191 198 199 195 190 191 196 195 195 196 199 204 207 219 234 250
220 248 124 179 181 188 162 201 262 276 210 279 263 266 260 161 202 230 226 224 226 205 195 196 193 194 193 190 195 198 202 200 192 190 191 192 191 192 192 193 199 214 229 242
258 259 195 123 191 219 241 79 186 199 257 258 278 277 277 238 228 210 232 237 250 215 212 212 203 197 196 193 197 199 201 200 194 191 191 189 185 187 190 186 199 209 221 236
235 231 227 141 200 214 185 222 220 301 239 252 271 265 54 8 150 269 223 243 242 216 210 212 206 199 200 197 196 198 198 197 194 191 187 184 182 181 186 190 197 207 216 228
216 266 232 235 246 261 257 231 218 216 227 235 254 272 147 137 107 187 236 216 264 247 224 220 201 198 199 200 197 199 196 198 195 188 185 181 175 174 185 192 192 196 213 225
175 207 236 259 241 167 211 228 241 237 249 243 242 256 224 274 284 277 245 228 215 218 229 220 205 200 204 199 198 198 196 199 189 182 181 177 179 178 185 189 190 196 211 222
334 190 224 237 246 262 214 225 223 227 234 246 244 264 281 282 279 274 272 266 249 236 233 233 213 215 205 200 196 197 195 192 182 181 180 180 181 178 180 178 185 197 207 225
305 251 251 254 266 274 275 267 226 229 240 246 264 263 266 277 272 272 278 275 283 274 262 237 232 227 208 197 196 193 191 187 180 179 181 181 177 171 168 170 178 177 197 226
215 251 244 246 251 262 266 265 267 264 262 259 254 260 259 259 269 274 269 276 275 274 271 261 253 227 205 200 195 187 187 182 175 180 181 174 167 165 171 168 165 173 202 221
191 205 210 242 237 240 247 240 243 248 251 250 249 247 259 264 260 258 276 275 272 274 269 255 248 228 208 203 188 187 180 168 174 177 174 164 161 161 163 158 163 179 200 215
217 215 230 256 254 229 236 242 230 242 248 255 251 254 254 258 271 291 272 266 271 269 270 265 252 229 197 191 180 166 166 168 171 172 162 160 159 157 158 166 177 187 199 214
223 230 238 235 229 252 294 224 219 225 237 242 254 255 258 268 274 270 261 261 252 263 264 260 251 208 165 167 161 157 160 162 168 170 161 157 158 157 158 171 180 187 199 231
228 224 231 232 240 240 232 224 241 242 244 229 240 251 259 265 235 254 264 259 236 246 236 234 141 128 149 156 158 156 162 168 179 172 157 152 153 155 164 169 171 174 206 236
206 222 229 235 248 251 245 246 230 243 254 237 242 253 264 263 246 262 274 226 229 228 169 143 158 161 162 156 156 166 165 180 168 156 144 149 153 155 159 162 161 171 205 234
232 219 218 235 243 250 224 241 236 247 258 265 269 257 259 266 266 250 259 261 216 213 176 166 154 154 150 156 162 174 179 160 154 140 137 146 148 148 159 153 162 179 189 217
261 290 313 290 294 339 16 341 337 351 358 337 349 359 351 335 319 307 284 275 221 203 166 166 164 157 165 172 176 172 168 149 146 140 137 143 150 152 148 154 158 173 188 208
277 336 285 323 343 322 309 312 333 12 360 340 328 323 327 322 319 313 314 292 237 184 183 173 167 175 177 179 179 170 155 150 147 142 144 149 148 149 158 156 166 180 192 186
283 306 293 289 286 289 298 299 301 301 297 293 289 293 299 296 294 299 298 289 275 224 173 177 189 189 187 176 175 156 158 152 150 143 145 149 148 156 155 162 170 177 176 219
272 278 273 282 297 304 302 309 306 305 298 297 295 294 285 275 272 273 272 274 274 235 184 189 195 185 178 173 160 160 162 158 149 143 149 156 154 155 155 154 152 178 172 198